DateTimeUTC,F1_A11,F1_S11,BsB_S11,BsG_S11,BsR_S11,BbsB_S11,BbsG_S11,BbsR_S11,BaB_A11,BaG_A11,BaR_A11,Tu_S11,T_S11,Uu_S11,U_S11,P_S11,T1_A11
2021-11-21T19:00:00Z,00000200,21000000,,,,,,,-000.01,0000.09,0000.15,18.8,25.8,,00.0,0635.2,30.9
2021-11-21T19:01:00Z,00000200,21000000,,,,,,,0000.03,-000.09,-000.43,18.8,25.8,,00.0,0635.2,30.9
2021-11-21T19:02:00Z,00000200,21000000,,,,,,,-000.04,0000.25,0000.21,18.8,25.8,,00.0,0635.2,30.8
2021-11-21T19:03:00Z,00000200,61000000,,,,,,,0000.23,-000.13,0000.15,18.8,25.8,,00.0,0635.2,30.8
2021-11-21T19:04:00Z,00000200,41000000,-000.23,0000.32,-000.13,-000.05,0000.18,-000.06,-000.13,0000.22,0000.02,18.8,25.5,,00.0,0636.0,30.8
2021-11-21T19:05:00Z,00000200,01000000,-000.12,0000.20,-000.15,-000.44,0000.19,-000.03,0000.16,-000.06,-000.12,18.9,25.5,,00.0,0636.1,30.9
2021-11-21T19:06:00Z,00000200,01000000,0000.34,0000.21,0000.04,-000.36,0000.13,-000.02,0000.27,-000.02,0000.18,19.0,25.5,,00.0,0636.1,30.9
2021-11-21T19:07:00Z,00000200,01000000,0000.58,0000.14,-000.40,-000.33,-000.03,0000.18,-000.23,-000.12,-000.05,19.0,25.5,,00.0,0636.1,30.9
2021-11-21T19:08:00Z,00000200,01000000,-000.34,0000.05,0000.25,0000.28,-000.29,0000.21,0000.05,0000.13,0000.06,19.1,25.5,,00.0,0636.1,30.9
2021-11-21T19:09:00Z,00000200,01000000,0000.37,0000.14,0000.17,-000.09,-000.21,-000.24,0000.00,-000.23,0000.02,19.2,25.6,,00.0,0636.1,30.9
2021-11-21T19:10:00Z,00000200,01000000,0000.31,0000.05,0000.40,0000.09,0000.04,0000.21,-000.38,0000.18,-000.27,19.2,25.6,,00.0,0636.1,30.9
2021-11-21T19:11:00Z,00000200,01000000,0001.13,0000.20,0000.37,0000.02,0000.06,0000.22,-000.07,-000.02,0000.37,19.3,25.6,,00.0,0636.2,30.9
2021-11-21T19:12:00Z,00000200,01000000,0000.72,0000.06,-000.15,0000.42,0000.11,0000.03,0000.07,-000.13,-000.43,19.3,25.6,,00.0,0636.1,31.0
2021-11-21T19:13:00Z,00000200,01000000,0000.25,-000.03,-000.29,0000.24,-000.00,-000.19,0000.34,0000.34,0000.19,19.3,25.7,,00.0,0636.1,30.9
2021-11-21T19:14:00Z,00000200,01000000,0000.10,0000.20,-000.23,-000.23,0000.37,-000.09,-000.17,-000.29,-000.22,19.2,25.6,,00.0,0636.1,30.9
2021-11-21T19:15:00Z,00000200,01000000,-000.29,0000.32,0000.26,-000.03,0000.22,0000.10,0000.12,0000.10,0000.34,19.1,25.6,,00.0,0636.0,30.9
2021-11-21T19:16:00Z,00000200,01000000,-000.41,0000.00,-000.00,-000.22,0000.08,0000.17,0000.37,0000.40,0000.30,19.1,25.6,,00.0,0636.0,30.9
2021-11-21T19:17:00Z,00000200,01000000,0001.12,0000.05,0000.11,0000.61,0000.11,-000.21,-000.30,-000.10,-000.29,19.0,25.5,,00.0,0636.0,30.8
2021-11-21T19:18:00Z,00000200,01000000,-000.14,0000.45,0000.19,-000.05,0000.16,0000.25,0000.20,-000.27,-000.10,19.0,25.5,,00.0,0635.9,30.9
2021-11-21T19:19:00Z,00000200,01000000,0000.07,0000.21,0000.08,0000.06,0000.23,0000.17,0000.03,0000.32,0000.13,19.0,25.5,,00.0,0636.0,30.9
2021-11-21T19:20:00Z,00000200,01000000,0000.05,0000.15,0000.12,-000.23,-000.07,0000.23,-000.02,0000.20,-000.04,19.0,25.5,,00.0,0636.0,30.9
2021-11-21T19:21:00Z,00000200,01000000,0000.70,-000.19,0000.06,-000.64,-000.12,-000.13,-000.02,-000.42,0000.24,19.1,25.5,,00.0,0636.0,30.9
2021-11-21T19:22:00Z,00000200,01000000,-000.45,0000.11,-000.17,-000.01,0000.19,0000.14,-000.05,0000.20,-000.10,19.1,25.5,,00.0,0636.0,30.9
2021-11-21T19:23:00Z,00000200,01000000,-000.08,0000.03,-000.01,0000.14,0000.14,0000.12,0000.15,0000.18,-000.13,19.2,25.6,,00.0,0636.1,30.9
2021-11-21T19:24:00Z,00000200,01000000,0000.32,-000.13,-000.14,0000.20,0000.06,0000.08,-000.17,-000.47,-000.46,19.3,25.6,,00.0,0636.1,30.9
2021-11-21T19:25:00Z,00000200,01000000,-000.16,-000.03,0000.40,0000.33,-000.10,0000.34,-000.19,-000.07,0000.31,19.3,25.6,,00.0,0636.1,31.0
2021-11-21T19:26:00Z,00000200,01000000,0000.09,0000.09,0000.02,-000.18,0000.33,0000.05,-000.04,0000.09,0000.15,19.3,25.7,,00.0,0636.2,31.0
2021-11-21T19:27:00Z,00000200,01000000,0000.15,0000.13,0000.11,-000.11,-000.07,0000.18,0000.10,-000.11,-000.36,19.3,25.7,,00.0,0636.2,30.9
2021-11-21T19:28:00Z,00000200,01000000,0000.10,0000.10,0000.02,0000.31,0000.09,0000.32,0000.02,-000.15,0000.05,19.2,25.6,,00.0,0636.2,30.9
2021-11-21T19:29:00Z,00000200,01000000,0000.68,0000.14,-000.01,0000.18,0000.11,0000.12,-000.08,0000.33,0000.17,19.1,25.6,,00.0,0636.1,30.9
2021-11-21T19:30:00Z,00000200,01000000,0000.21,0000.12,-000.03,-000.13,0000.19,-000.08,-000.11,-000.01,-000.25,19.1,25.6,,00.0,0636.1,30.9
2021-11-21T19:31:00Z,00000200,01000000,0000.46,0000.02,-000.27,-000.09,0000.18,-000.09,0000.13,-000.03,0000.24,19.0,25.5,,00.0,0636.0,30.9
2021-11-21T19:32:00Z,00000200,01000000,0000.04,-000.10,0000.14,0000.02,0000.16,0000.21,0000.29,0000.15,-000.14,19.0,25.5,,00.0,0636.0,30.8
2021-11-21T19:33:00Z,00000200,01000000,0000.93,0000.15,-000.05,-000.16,0000.46,-000.01,0000.10,0000.13,0000.24,18.9,25.5,,00.0,0636.0,30.8
2021-11-21T19:34:00Z,00000200,01000000,0000.38,0000.32,0000.16,0000.37,-000.16,0000.13,0000.20,0000.44,0000.49,18.9,25.5,,00.0,0636.0,30.8
2021-11-21T19:35:00Z,00000200,01000000,0000.34,0000.16,0000.25,0000.84,0000.09,0000.18,0000.49,-000.28,0000.11,19.0,25.4,,00.0,0636.0,30.9
2021-11-21T19:36:00Z,00000200,01000000,0000.61,0000.05,0000.30,-000.01,0000.32,0000.14,0000.08,0000.45,0000.19,19.0,25.5,,00.0,0635.9,30.9
2021-11-21T19:37:00Z,00000200,01000000,0000.41,0000.15,-000.23,0000.20,0000.04,0000.26,-000.01,0000.39,0000.19,19.1,25.5,,00.0,0635.9,30.9
2021-11-21T19:38:00Z,00000200,01000000,0000.06,0000.25,0000.12,0000.06,0000.12,0000.29,0000.22,-000.23,0000.08,19.1,25.5,,00.0,0635.9,30.9
2021-11-21T19:39:00Z,00000200,01000000,0000.50,0000.04,0000.04,0000.54,0000.19,-000.05,-000.12,0000.31,0000.04,19.2,25.6,,00.0,0635.9,30.9
2021-11-21T19:40:00Z,00000200,01000000,0000.05,0000.22,-000.06,0000.51,-000.38,0000.27,0000.18,0000.14,0000.32,19.3,25.6,,00.0,0635.9,30.9
2021-11-21T19:41:00Z,00000200,01000000,-000.46,0000.17,0000.05,0000.20,0000.11,0000.18,0000.27,-000.11,0000.10,19.3,25.6,,00.0,0635.9,31.0
2021-11-21T19:42:00Z,00000200,01000000,-000.15,-000.03,-000.15,0000.20,-000.05,0000.11,-000.10,0000.01,-000.24,19.4,25.7,,00.0,0635.9,30.9
2021-11-21T19:43:00Z,00000200,01000000,-000.28,0000.04,0000.41,-000.55,0000.22,0000.10,-000.04,0000.04,-000.12,19.4,25.7,,00.0,0635.9,30.9
2021-11-21T19:44:00Z,00000200,01000000,-000.08,0000.17,0000.05,-000.37,0000.06,0000.41,-000.08,0000.03,0000.38,19.4,25.7,,00.0,0635.9,30.9
2021-11-21T19:45:00Z,00000200,01000000,0000.02,-000.14,-000.23,-000.12,0000.20,0000.05,0000.20,-000.26,-000.00,19.3,25.7,,00.0,0635.8,30.9
2021-11-21T19:46:00Z,00000200,01000000,0000.55,-000.08,0000.01,0000.25,0000.15,0000.29,-000.29,0000.31,0000.01,19.2,25.6,,00.0,0635.8,30.9
2021-11-21T19:47:00Z,00000200,01000000,0001.07,-000.07,-000.02,-000.34,-000.12,-000.12,0000.26,0000.18,-000.31,19.2,25.6,,00.0,0635.8,30.9
2021-11-21T19:48:00Z,00000200,01000000,0001.00,0000.12,-000.07,-000.51,0000.04,0000.09,0000.01,0000.01,0000.04,19.2,25.6,,00.0,0635.8,30.9
2021-11-21T19:49:00Z,00000200,01000000,-000.01,0000.23,-000.03,-000.14,-000.11,0000.06,0000.38,-000.12,0000.22,19.2,25.5,,00.0,0635.8,30.9
2021-11-21T19:50:00Z,00000200,01000000,0000.41,0000.40,-000.23,0000.43,0000.28,-000.11,-000.27,0000.10,0000.08,19.2,25.6,,00.0,0635.9,30.9
2021-11-21T19:51:00Z,00000200,01000000,0000.54,-000.16,0000.14,0000.18,0000.30,0000.19,0000.39,-000.11,0000.17,19.3,25.6,,00.0,0635.9,30.9
2021-11-21T19:52:00Z,00000200,01000000,0000.65,0000.10,-000.14,0000.93,-000.01,-000.01,-000.46,0000.43,-000.06,19.3,25.6,,00.0,0635.9,30.9
2021-11-21T19:53:00Z,00000200,01000000,0001.15,0000.47,0000.19,-000.31,-000.02,0000.34,0000.21,-000.02,-000.06,19.4,25.7,,00.0,0635.9,30.9
2021-11-21T19:54:00Z,00000200,01000000,-000.49,-000.04,0000.04,0000.06,0000.03,0000.35,-000.03,-000.20,0000.10,19.4,25.7,,00.0,0636.0,30.9
2021-11-21T19:55:00Z,00000200,01000000,0000.27,0000.14,-000.01,0000.08,0000.22,0000.06,0000.10,0000.33,-000.03,19.5,25.7,,00.0,0636.0,31.0
2021-11-21T19:56:00Z,00000200,01000000,-000.09,0000.09,0000.15,-000.25,0000.07,0000.13,0000.10,-000.15,0000.10,19.5,25.7,,00.0,0636.0,31.0
2021-11-21T19:57:00Z,00000200,41000000,,,,,,,-000.16,-000.13,-000.29,19.6,25.8,,00.0,0636.0,31.0
2021-11-21T19:58:00Z,00000200,61000000,,,,,,,-000.23,-000.16,-000.06,19.2,25.8,,00.0,0635.1,30.9
2021-11-21T19:59:00Z,00000200,21000000,,,,,,,-000.08,0000.09,0000.01,19.1,25.9,,00.0,0635.1,30.9
